Orbital Elements at Epoch 2459200.5 (2020-Dec-17.0) TDB
Reference: JPL 16 (heliocentric ecliptic J2000)
Element | Value | Uncertainty (1-sigma) | Units |
e | .2326740578578836 | 3.2538e-08 | |
a | 2.182222606382413 | 9.9548e-09 | au |
q | 1.67447601740621 | 7.2598e-08 | au |
i | 5.529180305851524 | 4.305e-06 | deg |
node | 171.3466118964472 | 4.1794e-05 | deg |
peri | 118.0631372555158 | 4.3451e-05 | deg |
M | 223.6630282024542 | 1.4543e-05 | deg |
tp | 2459646.421225979942 (2022-Mar-07.92122598) | 4.9783e-05 | TDB |
period | 1177.462277739022 3.22 | 8.057e-06 2.206e-08 | d yr |
n | .3057422788025758 | 2.0921e-09 | deg/d |
Q | 2.689969195358617 | 1.2271e-08 | au |
|
| | Orbit Determination Parameters
Additional Information
|